This is the latest recevied weather packets stored in our database for station/object IU5JAE-13. If no packets are shown the sender has not sent any weather packets the latest 10 day(s).
| Time | Temp. | Humidity | Pressure | Rain* | Wind** | Luminosity | Snow |
|---|---|---|---|---|---|---|---|
| 1778027124 | 12.78° C | 99% | 1011.4 hPa | 2.54 mm | - | 0 W/m² | - |
| 1778026522 | 12.78° C | 99% | 1011.3 hPa | 4.83 mm | - | 0 W/m² | - |
| 1778025919 | 12.78° C | 99% | 1011.4 hPa | 8.13 mm | - | 0 W/m² | - |
| 1778025317 | 12.78° C | 99% | 1011.6 hPa | 9.4 mm | - | 0 W/m² | - |
| 1778024735 | 12.78° C | 99% | 1011.5 hPa | 13.72 mm | - | 0 W/m² | - |
| 1778024132 | 13.33° C | 99% | 1011.2 hPa | 14.22 mm | - | 0 W/m² | - |
| 1778023530 | 13.33° C | 99% | 1011.4 hPa | 13.72 mm | - | 0 W/m² | - |
| 1778022928 | 13.33° C | 99% | 1011.5 hPa | 10.67 mm | - | 0 W/m² | - |
| 1778022325 | 13.33° C | 99% | 1011.5 hPa | 6.35 mm | - | 0 W/m² | - |
| 1778021723 | 13.33° C | 99% | 1011.5 hPa | 4.83 mm | - | 0 W/m² | - |
| 1778021120 | 13.33° C | 99% | 1011.7 hPa | 0.51 mm | - | 0 W/m² | - |
| 1778020518 | 13.33° C | 99% | 1012 hPa | 0.51 mm | - | 0 W/m² | - |
| 1778019915 | 13.89° C | 99% | 1012.1 hPa | 1.52 mm | - | 0 W/m² | - |
| 1778019333 | 13.89° C | 99% | 1012.2 hPa | 2.79 mm | - | 0 W/m² | - |
| 1778018731 | 13.89° C | 99% | 1012.1 hPa | 4.32 mm | - | 0 W/m² | - |
| 1778018128 | 13.89° C | 99% | 1012 hPa | 4.83 mm | - | 0 W/m² | - |
| 1778017526 | 13.89° C | 99% | 1012 hPa | 5.33 mm | - | 0 W/m² | - |
| 1778016923 | 13.89° C | 99% | 1012.2 hPa | 5.33 mm | - | 0 W/m² | - |
| 1778016321 | 13.89° C | 99% | 1012.6 hPa | 4.06 mm | - | 0 W/m² | - |
| 1778015719 | 13.89° C | 99% | 1012.6 hPa | 3.05 mm | - | 0 W/m² | - |
| 1778015116 | 13.89° C | 99% | 1012.4 hPa | 1.52 mm | - | 0 W/m² | - |
| 1778014534 | 13.89° C | 99% | 1012.6 hPa | 1.02 mm | - | 0 W/m² | - |
| 1778013932 | 14.44° C | 99% | 1012.7 hPa | 0.25 mm | - | 0 W/m² | - |
| 1778013330 | 13.89° C | 98% | 1012.9 hPa | 0.51 mm | - | 0 W/m² | - |
| 1778012727 | 14.44° C | 98% | 1012.7 hPa | 0.51 mm | - | 0 W/m² | - |
* Rain latest hour (hover to see other rain measurements)
** Current wind speed in m/s (hover to see current wind gust speed)